Regional Weather Roundup
Issued by NWS

Home | Current Version | Previous Version | Graphics & Text | Print | Product List | Glossary On
Versions: 1 2 3 4 5 6 7 8 9 10 11 12 13 14 15 16 17 18 19 20 21 22 23 24 25 26 27 28 29 30 31 32 33 34 35 36 37 38 39 40 41 42 43 44 45 46 47 48 49 50
000
ASUS43 KMKX 282300
RWRWI

WISCONSIN REGIONAL WEATHER ROUNDUP
NATIONAL WEATHER SERVICE MILWAUKEE/SULLIVAN WI
600 PM CDT THU APR 28 2016

NOTE: "FAIR" INDICATES FEW OR NO CLOUDS BELOW 12,000 FEET WITH NO
SIGNIFICANT WEATHER AND/OR OBSTRUCTIONS TO VISIBILITY.

WIZ001-002-006>008-014>016-023>028-290000-
NORTHWEST WISCONSIN

CITY           SKY/WX    TMP DP  RH WIND       PRES   REMARKS
SUPERIOR ARPT  CLOUDY    39  32  76 NE8G16    30.12S WCI  34
ASHLAND        MOSUNNY   43  29  57 NE14      30.13R
HAYWARD        PTSUNNY   46  27  47 NE14      30.07R
SIREN          CLOUDY    51  26  37 NE10      30.04R
CUMBERLAND     CLOUDY    45  34  65 S10G20    30.03R
RICE LAKE      CLOUDY    46  33  58 S3        30.05R
CHETEK         CLOUDY    46  34  62 S7        30.04R
LADYSMITH      CLOUDY    53  23  31 S3        30.03S
EAU CLAIRE     NOT AVBL
MENOMONIE      LGT RAIN  41  41  99 NE8       30.05R
NEW RICHMOND   LGT RAIN  43  34  70 CALM      30.06R
OSCEOLA        LGT RAIN  44  38  79 S9        30.09R
$$

WIZ003>005-009-010-017-018-290000-
NORTH CENTRAL WISCONSIN

CITY           SKY/WX    TMP DP  RH WIND       PRES   REMARKS
MANITOWISH WTR SUNNY     54  21  28 CALM      30.01S
ARBOR VITAE    SUNNY     57  21  25 E9        30.00S
WOODRUFF       SUNNY     57  21  25 E9        30.00S
RHINELANDER    PTSUNNY   55  21  26 E10       30.00S
EAGLE RIVER    SUNNY     54  20  26 SE7       30.00S
LAND O LAKES   SUNNY     55  21  26 E3        30.02S
PHILLIPS       CLOUDY    54  22  29 E6        29.99S
TOMAHAWK       CLOUDY    53  22  30 E8        30.01S
MEDFORD        CLOUDY    41  34  76 S9        30.02S
MERRILL        CLOUDY    45  31  58 S5        30.03R
$$

WIZ029-030-035-036-043>047-290000-
CENTRAL WISCONSIN

CITY           SKY/WX    TMP DP  RH WIND       PRES   REMARKS
WAUSAU         LGT RAIN  44  33  65 E8        30.03R
MOSINEE        CLOUDY    39  37  93 VRB5      30.04R
MARSHFIELD     CLOUDY    41  35  79 NE6       30.02S
STEVENS POINT  CLOUDY    40  35  80 NE7       30.03S
WAUPACA        CLOUDY    45  36  69 NE3       30.03R
WAUTOMA        CLOUDY    41  33  73 NE5       30.03R
WISC RAPIDS    LGT RAIN  40  36  86 E6        30.04R
CAMP DOUGLAS   CLOUDY    41  41 100 E13       30.01R
$$

WIZ011>013-019>022-031-037>040-048>050-290000-
NORTHEAST WISCONSIN

CITY           SKY/WX    TMP DP  RH WIND       PRES   REMARKS
ANTIGO         CLOUDY    46  26  45 E12G20    30.02S
SHAWANO        CLOUDY    45  33  65 NE13G18   30.05S
OCONTO         CLOUDY    43  32  66 NE6       30.05S
STURGEON BAY   CLOUDY    43  28  56 NE8       30.07S
GREEN BAY      CLOUDY    45  30  55 E7        30.04R
MANITOWOC      NOT AVBL
APPLETON       CLOUDY    43  30  61 E12G17    30.01R
CLINTONVILLE   CLOUDY    43  32  65 NE8       30.04R
OSHKOSH        CLOUDY    44  31  60 NE14      30.00S
$$

WIZ032>034-041-042-053>061-290000-
SOUTHWEST WISCONSIN

CITY           SKY/WX    TMP DP  RH WIND       PRES   REMARKS
LA CROSSE      CLOUDY    42  39  89 NE7       30.01R FOG
SPARTA         CLOUDY    40  39  97 E6        30.02R FOG
VIROQUA        CLOUDY    40  39  97 E12       29.98R WCI  32
BOSCOBEL       CLOUDY    44  38  79 NE5       30.00R
PRAIRIE DU CHI CLOUDY    43  39  85 NE7       29.99R FOG
PLATTEVILLE    CLOUDY    44  42  95 NE8       29.96R
$$

WIZ056-057-062-063-064-067-068-290000-
SOUTH CENTRAL WISCONSIN

CITY           SKY/WX    TMP DP  RH WIND       PRES   REMARKS
REEDSBURG      CLOUDY    40  39  97 E8        29.99R FOG     WCI  34
BARABOO/DELLS  CLOUDY    39  37  93 E10       29.99R FOG     WCI  32
LONE ROCK      CLOUDY    42  39  89 E7        30.00R
MINERAL POINT  LGT RAIN  43  39  87 NE8       29.97R
MADISON        CLOUDY    40  37  89 E9        30.00R WCI  34
MIDDLETON      CLOUDY    41  39  90 E8        30.00R
WATERTOWN      CLOUDY    40  38  93 E12       29.99R WCI  32
MONROE         CLOUDY    43  39  87 NE9       29.96R
JANESVILLE     CLOUDY    43  39  87 NE12      29.95S
$$

WIZ051-052-058>065-066-070>072-290000-
SOUTHEAST WISCONSIN

CITY           SKY/WX    TMP DP  RH WIND       PRES   REMARKS
MILWAUKEE      CLOUDY    41  37  86 NE14      29.98F
WAUKESHA       CLOUDY    37  36  93 NE14      29.99S WCI  29
MILWAUKEE/TIMM CLOUDY    39  34  81 NE12G17   30.01R WCI  32
RACINE         CLOUDY    41  36  82 NE10      30.00R
BURLINGTON     CLOUDY    38  38  97 NE12      29.98R FOG     WCI  31
KENOSHA        CLOUDY    40  38  93 NE9       29.98R FOG     WCI  34
FOND DU LAC    CLOUDY    43  33  68 E15       30.01S
SHEBOYGAN      CLOUDY    39  37  92 E9        30.03R FOG     WCI  33
WEST BEND      CLOUDY    39  34  81 E15       30.00S WCI  31
JUNEAU         CLOUDY    39  36  87 E10       30.01R WCI  32
$$

LSZ147-162-290000-
LAKE SUPERIOR

STATION/POSITION TIME  TEMP    WIND        PRES    WAVE
                       AIR SEA DIR/SP/G            HT/PER
                 (UTC) (F)     (DEG/KT/KT) (MB)    (FT/S)
W MID LAKE BUOY  2150   38 36   60/ 16/ 17 1020.7F   4/ 6
DEVILS ISLAND    2200   38      80/ 16/ 17 1020.8S
SAXON HARBOR     2240   39      40/ 13/ 15 1019.3S
$$

LMZ867-665-643>646-290000-
LAKE MICHIGAN

STATION/POSITION TIME  TEMP    WIND        PRES    WAVE
                       AIR SEA DIR/SP/G            HT/PER
                 (UTC) (F)     (DEG/KT/KT) (MB)    (FT/S)
CHAMBERS ISLAND  2200   43      30/  8/ 11 1017.9
N MID LAKE BUOY  2150   40 39   50/ 10/ 12 1018.1R   2/ 4
NORTHPORT PIER   2200   42      60/  6/  8 1017.9S
ALGOMA LAKESHORE 2100           70/ 16/ 19   N/A
KEWAUNEE LAKESHO 2200   41                 1016.7R
SHEBOYGAN LAKESH 2200   39      60/ 18/ 19 1017.2R
PORT WASHINGTON  2200   42      40/ 14/ 18 1016.9R
S MID LAKE BUOY  2150   40 40   60/ 12/ 14 1014.4R   3/ 4
KENOSHA   LAKESH 2200   39      50/ 15/ 17 1014.9R
$$

TC  - TEMPERATURE IN CELSIUS
VSB - VISIBILITY IN STATUTE MILES
WCI - WIND CHILL INDEX
HX  - HEAT INDEX





USA.gov is the U.S. government's official web portal to all federal, state and local government web resources and services.